Portada
METAR-TAF:

METAR-TAF

Aeropuertos :

Independence, Kansas, Estados Unidos

latitud: 37-09-30N, longitud: 095-46-42W, altitud: 251 m

Observación

El informe se hizo hace 29 minutos, a las 06:35 UTC
Viento 8 kt del sur-sureste
Temperatura 25°C
Humedad 79%
Presión 1013 hPa
Visibilidad: 16.1 km
Cielo despejado

METAR: KIDP 070635Z AUTO 16008KT 10SM CLR 25/21 A2990 RMK AO2 T02510211

Hora: 02:04 (07:04 UTC)


TAF: falta

Observaciones y pronósticos meteorológicos de más de 4000 aeropuertos (mensajes METAR y TAF).

Los puntos amarillos y rojos representan las estaciones disponibles.

Ponga el ratón en el punto deseado para ver el nombre de la estación.

Haga clic para ver las observaciones y los pronósticos meteorológicos.

Para cambiar el mapa : haga clic en los botones verdes con una cruz de color negro para hacer un zoom, en el botón verde con un guión para alejar o en las flechas verdes para mapas adyacentes.


METAR-TAF: